Location: Peterborough
(44.3091°N, 78.3197°W)
Time: 07:09:00
(UTC-05:00)

A-11 Canister half - Pass Details

Date: 11 December 2023
Orbit: 1512 x 1687 km, 47.2° (Epoch: 25 February)

Event Time Altitude Azimuth Distance (km) Brightness Sun altitude
Exits shadow 04:52:46 50° 256° (WSW) 2,020 9.1 -28.7°
Maximum altitude 04:54:54 59° 215° (SW) 1,879 9.2 -28.4°
Drops below altitude 10° 05:04:45 10° 140° (SE) 3,941 11.7 -26.6°
Sets 05:07:59 0° 136° (SE) 4,931 12.4 -26.0°
